EW2957 Weather Reports


time (UTC)temp
C
wind
direction
speed
KPH
gust
KPH
rain 1hr
cm
rain 24hr
cm
rain mn
cm
humidity
%
barometer
mb
20260507063059 12 128 0.0 0.0 0.00 0.00 0.00 85 1019.7
20260507061550 12 195 0.0 0.0 0.00 0.00 0.00 84 1019.7
20260507060049 12 202 0.0 0.0 0.00 0.00 0.00 84 1019.7
20260507054537 13 169 0.0 0.0 0.00 0.00 0.00 84 1019.8
20260507053032 13 218 0.0 0.0 0.00 0.00 0.00 83 1019.8
20260507051520 13 240 0.0 0.0 0.00 0.00 0.00 82 1019.8
20260507050024 13 240 0.0 0.0 0.00 0.00 0.00 82 1019.8
20260507044517 13 215 0.0 0.0 0.00 0.00 0.00 81 1019.7
20260507043022 13 166 0.0 0.0 0.00 0.00 0.00 81 1019.6
20260507041517 13 148 0.0 0.0 0.00 0.00 0.00 81 1019.4
20260507040015 13 138 0.0 0.0 0.00 0.00 0.00 82 1019.6
20260507034515 13 324 0.0 0.0 0.00 0.00 0.00 81 1019.6
20260507033014 13 223 0.0 0.0 0.00 0.00 0.00 81 1019.5
20260507031502 13 223 0.0 0.0 0.00 0.00 0.00 80 1019.5
20260507030002 13 223 0.0 0.0 0.00 0.00 0.00 80 1019.4
20260507024503 14 211 0.0 0.0 0.00 0.00 0.00 79 1019.3
20260507023001 13 212 0.0 0.0 0.00 0.00 0.00 79 1019.2
20260507021608 13 189 0.0 0.0 0.00 0.00 0.00 79 1019.2
20260507020114 13 157 0.0 0.0 0.00 0.00 0.00 80 1019.2
20260507014605 13 200 0.0 0.0 0.00 0.00 0.00 79 1019.1
20260507013100 13 206 0.0 0.0 0.00 0.00 0.00 79 1019.1
20260507011558 14 153 0.0 0.0 0.00 0.00 0.00 79 1019.2
20260507010050 14 149 0.0 0.0 0.00 0.00 0.00 78 1019.3
20260507004554 14 146 0.0 0.0 0.00 0.00 0.00 78 1019.3
20260507003049 14 155 0.0 0.0 0.00 0.00 0.00 77 1019.3
20260507001547 14 150 0.0 0.0 0.00 0.00 0.00 76 1019.3
20260507000044 14 105 0.0 0.0 0.00 0.00 0.00 76 1019.3
20260506234548 14 159 0.0 3.2 0.00 0.00 0.00 76 1019.3
20260506233101 14 133 0.0 0.0 0.00 0.00 0.00 75 1019.3
20260506231543 15 77 0.0 0.0 0.00 0.00 0.00 74 1019.4
20260506230024 15 155 0.0 3.2 0.00 0.00 0.00 73 1019.3
20260506224525 15 180 0.0 0.0 0.00 0.00 0.00 72 1019.4
20260506223012 15 107 0.0 0.0 0.00 0.00 0.00 72 1019.4
20260506221509 14 176 0.0 1.6 0.00 0.00 0.00 73 1019.5
20260506220007 15 163 0.0 0.0 0.00 0.00 0.00 73 1019.5
20260506214507 14 207 0.0 0.0 0.00 0.00 0.00 74 1019.5
20260506213003 14 133 0.0 0.0 0.00 0.00 0.00 74 1019.6
20260506211501 14 173 0.0 0.0 0.00 0.00 0.00 74 1019.7
20260506210100 14 150 0.0 0.0 0.00 0.00 0.00 74 1019.5
20260506204558 13 225 0.0 0.0 0.00 0.00 0.00 77 1019.5
20260506203043 13 148 0.0 0.0 0.00 0.00 0.00 80 1019.5
20260506201543 13 128 0.0 0.0 0.00 0.00 0.00 84 1019.5
20260506200040 13 82 0.0 0.0 0.00 0.00 0.00 85 1019.5
20260506194539 13 86 0.0 0.0 0.00 0.00 0.00 85 1019.4
20260506193039 13 85 0.0 0.0 0.00 0.00 0.00 85 1019.4
20260506191540 13 136 0.0 0.0 0.00 0.00 0.00 83 1019.3
20260506190035 12 96 0.0 0.0 0.00 0.00 0.00 85 1019.3
20260506184546 12 156 0.0 0.0 0.00 0.00 0.00 86 1019.3
20260506183028 12 165 0.0 0.0 0.00 0.00 0.00 89 1019.2
20260506181517 12 78 0.0 0.0 0.00 0.00 0.00 90 1019.1
20260506180016 12 74 0.0 0.0 0.00 0.00 0.00 88 1019.2
20260506174513 12 139 0.0 0.0 0.00 0.00 0.00 87 1018.8
20260506173013 12 186 0.0 0.0 0.00 0.00 0.00 87 1018.9
20260506171513 12 134 0.0 0.0 0.00 0.00 0.00 87 1019.1
20260506170013 12 205 0.0 0.0 0.00 0.00 0.00 86 1019.2
20260506164511 12 143 0.0 0.0 0.00 0.00 0.00 87 1018.9
20260506163009 12 261 0.0 0.0 0.00 0.00 0.00 88 1018.9
20260506161512 12 200 0.0 0.0 0.00 0.00 0.00 90 1018.6
20260506160010 12 217 0.0 0.0 0.00 0.00 0.00 91 1018.4
20260506154509 12 106 0.0 0.0 0.00 0.00 0.00 91 1018.3
20260506153018 12 123 0.0 0.0 0.00 0.00 0.00 91 1018.5
20260506151508 12 116 0.0 0.0 0.00 0.00 0.00 91 1018.8
20260506150031 12 146 0.0 0.0 0.00 0.00 0.00 90 1018.6
20260506144527 12 152 0.0 0.0 0.00 0.00 0.00 90 1018.3
20260506143030 12 210 0.0 0.0 0.00 0.00 0.00 90 1018.4
20260506141523 12 90 0.0 0.0 0.00 0.00 0.00 90 1018.3
20260506140015 12 142 0.0 0.0 0.00 0.00 0.00 90 1018.2
20260506134510 12 186 0.0 0.0 0.00 0.00 0.00 89 1018.3
20260506133009 12 146 0.0 0.0 0.00 0.00 0.00 89 1018.0
20260506131507 12 200 0.0 0.0 0.00 0.00 0.00 89 1017.9
20260506130006 12 135 0.0 0.0 0.00 0.00 0.00 89 1017.9
20260506124504 12 132 0.0 0.0 0.00 0.00 0.00 89 1017.7
20260506123004 12 132 0.0 0.0 0.00 0.00 0.00 89 1017.7
20260506121502 12 159 0.0 0.0 0.00 0.00 0.00 89 1017.4
20260506120044 12 180 0.0 0.0 0.00 0.00 0.00 89 1017.4
20260506114544 12 189 0.0 0.0 0.00 0.00 0.00 89 1017.5
20260506113038 12 154 0.0 0.0 0.00 0.00 0.00 89 1017.3
20260506111531 12 157 0.0 0.0 0.00 0.00 0.00 89 1017.0
20260506110028 12 93 0.0 0.0 0.00 0.00 0.00 89 1017.0
20260506104533 12 156 0.0 0.0 0.00 0.00 0.00 88 1016.9
20260506103027 12 193 0.0 0.0 0.00 0.00 0.00 89 1016.9
20260506101524 12 167 0.0 0.0 0.00 0.00 0.00 89 1016.8
20260506100023 12 251 0.0 0.0 0.00 0.00 0.00 89 1016.7
20260506094521 12 200 0.0 0.0 0.00 0.00 0.00 89 1016.6
20260506093008 12 201 0.0 0.0 0.00 0.00 0.00 89 1016.4
20260506091507 12 163 0.0 0.0 0.00 0.00 0.00 89 1016.3
20260506090006 11 227 0.0 0.0 0.00 0.00 0.00 91 1016.3
20260506084503 11 214 0.0 0.0 0.00 0.00 0.00 91 1016.1
20260506083002 12 158 0.0 0.0 0.00 0.00 0.00 90 1015.9
20260506081603 12 158 0.0 0.0 0.00 0.00 0.00 90 1015.8
20260506080106 12 158 0.0 0.0 0.00 0.00 0.00 91 1015.7
20260506073044 12 238 0.0 0.0 0.00 0.00 0.00 91 1015.4
20260506071542 12 238 0.0 0.0 0.00 0.00 0.00 90 1015.5